Time,TemperatureF,DewpointF,PressureIn,WindDirection,WindDirectionDegrees,WindSpeedMPH,WindSpeedGustMPH,Humidity,HourlyPrecipIn,Conditions,Clouds,dailyrainin,SoftwareType,DateUTC
2013-04-15 00:02:00,69.0,52.0,29.44,NW,315,0.0,2.0,54,0.00,,,0.00,,2013-04-15 05:02:00,
2013-04-15 00:12:00,69.0,52.0,29.44,NW,315,0.0,2.0,54,0.00,,,0.00,,2013-04-15 05:12:00,
2013-04-15 00:23:00,68.0,52.0,29.44,North,360,0.0,1.0,56,0.00,,,0.00,,2013-04-15 05:23:00,
2013-04-15 00:32:00,68.0,52.0,29.45,North,360,0.0,0.0,57,0.00,,,0.00,,2013-04-15 05:32:00,
2013-04-15 00:42:00,68.0,52.0,29.45,North,360,0.0,0.0,57,0.00,,,0.00,,2013-04-15 05:42:00,
2013-04-15 00:52:00,68.0,52.0,29.45,North,360,0.0,0.0,57,0.00,,,0.00,,2013-04-15 05:52:00,
2013-04-15 01:02:00,67.0,52.0,29.45,North,360,0.0,0.0,59,0.00,,,0.00,,2013-04-15 06:02:00,
2013-04-15 01:12:00,67.0,52.0,29.45,North,360,0.0,0.0,59,0.00,,,0.00,,2013-04-15 06:12:00,
2013-04-15 01:22:00,66.0,52.0,29.45,North,360,0.0,0.0,60,0.00,,,0.00,,2013-04-15 06:22:00,
2013-04-15 01:33:00,66.0,53.0,29.45,NW,315,0.0,0.0,63,0.00,,,0.00,,2013-04-15 06:33:00,
2013-04-15 01:42:00,66.0,53.0,29.45,NW,315,0.0,0.0,63,0.00,,,0.00,,2013-04-15 06:42:00,
2013-04-15 01:52:00,65.0,52.0,29.45,North,360,0.0,0.0,63,0.00,,,0.00,,2013-04-15 06:52:00,
2013-04-15 02:02:00,65.0,53.0,29.44,North,360,0.0,0.0,65,0.00,,,0.00,,2013-04-15 07:02:00,
2013-04-15 02:41:00,64.0,52.0,29.44,NW,315,0.0,0.0,66,0.00,,,0.00,,2013-04-15 07:41:00,
2013-04-15 02:42:00,64.0,53.0,29.44,North,360,0.0,1.0,67,0.00,,,0.00,,2013-04-15 07:42:00,
2013-04-15 02:53:00,64.0,53.0,29.44,NW,315,0.0,0.0,68,0.00,,,0.00,,2013-04-15 07:53:00,
2013-04-15 03:02:00,64.0,54.0,29.44,NW,315,0.0,1.0,69,0.00,,,0.00,,2013-04-15 08:02:00,
2013-04-15 03:13:00,64.0,54.0,29.44,NW,315,0.0,1.0,69,0.00,,,0.00,,2013-04-15 08:13:00,
2013-04-15 03:22:00,64.0,54.0,29.44,NW,315,0.0,1.0,69,0.00,,,0.00,,2013-04-15 08:22:00,
2013-04-15 03:33:00,64.0,54.0,29.44,North,360,1.0,4.0,71,0.00,,,0.00,,2013-04-15 08:33:00,
2013-04-15 03:42:00,64.0,54.0,29.44,North,360,1.0,4.0,71,0.00,,,0.00,,2013-04-15 08:42:00,
2013-04-15 03:52:00,64.0,55.0,29.44,North,360,0.0,4.0,72,0.00,,,0.00,,2013-04-15 08:52:00,
2013-04-15 04:03:00,64.0,55.0,29.44,North,360,0.0,4.0,72,0.00,,,0.00,,2013-04-15 09:03:00,
2013-04-15 04:12:00,64.0,55.0,29.44,North,360,0.0,4.0,72,0.00,,,0.00,,2013-04-15 09:12:00,
2013-04-15 04:23:00,63.0,54.0,29.44,NW,315,0.0,1.0,73,0.00,,,0.00,,2013-04-15 09:23:00,
2013-04-15 04:33:00,63.0,56.0,29.44,NW,315,0.0,1.0,77,0.00,,,0.00,,2013-04-15 09:33:00,
2013-04-15 04:43:00,63.0,56.0,29.44,NW,315,0.0,1.0,77,0.00,,,0.00,,2013-04-15 09:43:00,
2013-04-15 04:53:00,63.0,56.0,29.45,North,360,0.0,2.0,78,0.00,,,0.00,,2013-04-15 09:53:00,
2013-04-15 05:02:00,63.0,56.0,29.44,NW,315,0.0,1.0,79,0.00,,,0.00,,2013-04-15 10:02:00,
2013-04-15 05:13:00,63.0,56.0,29.44,NW,315,0.0,1.0,79,0.00,,,0.00,,2013-04-15 10:13:00,
2013-04-15 05:23:00,64.0,58.0,29.45,NW,315,0.0,1.0,80,0.00,,,0.00,,2013-04-15 10:23:00,
2013-04-15 05:33:00,64.0,58.0,29.46,West,270,0.0,1.0,80,0.00,,,0.00,,2013-04-15 10:33:00,
2013-04-15 05:42:00,64.0,58.0,29.46,West,270,0.0,1.0,80,0.00,,,0.00,,2013-04-15 10:42:00,
2013-04-15 05:52:00,64.0,58.0,29.46,North,360,0.0,1.0,81,0.00,,,0.00,,2013-04-15 10:52:00,
2013-04-15 06:03:00,64.0,58.0,29.46,NW,315,0.0,1.0,81,0.00,,,0.00,,2013-04-15 11:03:00,
2013-04-15 06:12:00,64.0,58.0,29.46,NW,315,0.0,1.0,81,0.00,,,0.00,,2013-04-15 11:12:00,
2013-04-15 06:22:00,65.0,59.0,29.47,NE,45,0.0,1.0,82,0.00,,,0.00,,2013-04-15 11:22:00,
2013-04-15 06:32:00,65.0,59.0,29.47,NE,45,0.0,1.0,82,0.00,,,0.00,,2013-04-15 11:32:00,
2013-04-15 06:43:00,65.0,59.0,29.47,NE,45,0.0,1.0,82,0.00,,,0.00,,2013-04-15 11:43:00,
2013-04-15 06:52:00,65.0,60.0,29.49,North,360,0.0,0.0,84,0.00,,,0.00,,2013-04-15 11:52:00,
2013-04-15 06:53:00,65.0,59.0,29.47,NE,45,0.0,1.0,82,0.00,,,0.00,,2013-04-15 11:53:00,
2013-04-15 07:23:00,65.0,60.0,29.49,North,360,0.0,0.0,84,0.00,,,0.00,,2013-04-15 12:23:00,
2013-04-15 07:33:00,65.0,60.0,29.49,North,360,0.0,0.0,84,0.00,,,0.00,,2013-04-15 12:33:00,
2013-04-15 07:43:00,65.0,60.0,29.49,North,360,0.0,0.0,84,0.00,,,0.00,,2013-04-15 12:43:00,
2013-04-15 08:04:00,65.0,60.0,29.51,North,360,0.0,1.0,85,0.00,,,0.00,,2013-04-15 13:04:00,
2013-04-15 08:13:00,65.0,60.0,29.51,North,360,0.0,1.0,85,0.00,,,0.00,,2013-04-15 13:13:00,
2013-04-15 08:23:00,65.0,60.0,29.52,North,360,0.0,1.0,85,0.00,,,0.00,,2013-04-15 13:23:00,
2013-04-15 08:33:00,65.0,60.0,29.52,North,360,0.0,1.0,85,0.00,,,0.00,,2013-04-15 13:33:00,
2013-04-15 08:43:00,65.0,60.0,29.52,North,360,0.0,1.0,85,0.00,,,0.00,,2013-04-15 13:43:00,
2013-04-15 08:53:00,66.0,61.0,29.53,West,270,0.0,0.0,85,0.00,,,0.00,,2013-04-15 13:53:00,
2013-04-15 09:05:00,66.0,61.0,29.54,North,360,0.0,1.0,85,0.00,,,0.00,,2013-04-15 14:05:00,
2013-04-15 09:13:00,66.0,61.0,29.54,North,360,0.0,1.0,85,0.00,,,0.00,,2013-04-15 14:13:00,
2013-04-15 09:22:00,66.0,61.0,29.54,NW,315,0.0,1.0,85,0.00,,,0.00,,2013-04-15 14:22:00,
2013-04-15 09:33:00,66.0,61.0,29.54,West,270,0.0,1.0,84,0.00,,,0.00,,2013-04-15 14:33:00,
2013-04-15 09:44:00,66.0,61.0,29.54,West,270,0.0,1.0,84,0.00,,,0.00,,2013-04-15 14:44:00,
2013-04-15 09:53:00,67.0,62.0,29.54,North,360,0.0,1.0,84,0.00,,,0.00,,2013-04-15 14:53:00,
2013-04-15 10:03:00,67.0,62.0,29.54,North,360,0.0,1.0,84,0.00,,,0.00,,2013-04-15 15:03:00,
2013-04-15 10:13:00,67.0,62.0,29.54,North,360,0.0,1.0,84,0.00,,,0.00,,2013-04-15 15:13:00,
2013-04-15 10:23:00,68.0,62.0,29.55,WNW,292,0.0,1.0,82,0.00,,,0.00,,2013-04-15 15:23:00,
2013-04-15 10:35:00,69.0,63.0,29.56,NW,315,0.0,1.0,80,0.00,,,0.00,,2013-04-15 15:35:00,
2013-04-15 10:43:00,69.0,63.0,29.56,NW,315,0.0,1.0,80,0.00,,,0.00,,2013-04-15 15:43:00,
2013-04-15 10:54:00,70.0,62.0,29.57,NW,315,0.0,1.0,76,0.00,,,0.00,,2013-04-15 15:54:00,
2013-04-15 11:04:00,71.0,63.0,29.57,North,360,0.0,2.0,75,0.00,,,0.00,,2013-04-15 16:04:00,
2013-04-15 11:13:00,71.0,63.0,29.57,North,360,0.0,2.0,75,0.00,,,0.00,,2013-04-15 16:13:00,
2013-04-15 11:24:00,72.0,62.0,29.57,North,360,0.0,2.0,72,0.00,,,0.00,,2013-04-15 16:24:00,
2013-04-15 11:33:00,73.0,62.0,29.57,NW,315,1.0,4.0,69,0.00,,,0.00,,2013-04-15 16:33:00,
2013-04-15 11:44:00,73.0,62.0,29.57,NW,315,1.0,4.0,69,0.00,,,0.00,,2013-04-15 16:44:00,
2013-04-15 11:54:00,73.0,63.0,29.57,North,360,0.0,4.0,70,0.00,,,0.00,,2013-04-15 16:54:00,
2013-04-15 12:03:00,74.0,62.0,29.57,NW,315,0.0,2.0,67,0.00,,,0.00,,2013-04-15 17:03:00,
2013-04-15 12:14:00,74.0,62.0,29.57,NW,315,0.0,2.0,67,0.00,,,0.00,,2013-04-15 17:14:00,
2013-04-15 12:22:00,75.0,63.0,29.56,North,360,0.0,2.0,66,0.00,,,0.00,,2013-04-15 17:22:00,
2013-04-15 12:33:00,77.0,62.0,29.56,NE,45,4.0,11.0,59,0.00,,,0.00,,2013-04-15 17:33:00,
2013-04-15 12:43:00,77.0,62.0,29.56,NE,45,4.0,11.0,59,0.00,,,0.00,,2013-04-15 17:43:00,
2013-04-15 12:52:00,79.0,62.0,29.55,NE,45,3.0,12.0,56,0.00,,,0.00,,2013-04-15 17:52:00,
2013-04-15 13:03:00,79.0,62.0,29.55,NE,45,3.0,12.0,56,0.00,,,0.00,,2013-04-15 18:03:00,
2013-04-15 13:12:00,79.0,62.0,29.55,NE,45,3.0,12.0,56,0.00,,,0.00,,2013-04-15 18:12:00,
2013-04-15 13:23:00,80.0,62.0,29.54,North,360,0.0,2.0,54,0.00,,,0.00,,2013-04-15 18:23:00,
2013-04-15 13:32:00,82.0,59.0,29.54,North,360,0.0,2.0,45,0.00,,,0.00,,2013-04-15 18:32:00,
2013-04-15 13:42:00,82.0,59.0,29.54,North,360,0.0,2.0,45,0.00,,,0.00,,2013-04-15 18:42:00,
2013-04-15 13:52:00,82.0,59.0,29.54,North,360,0.0,2.0,45,0.00,,,0.00,,2013-04-15 18:52:00,
2013-04-15 14:02:00,82.0,59.0,29.53,North,360,1.0,11.0,45,0.00,,,0.00,,2013-04-15 19:02:00,
2013-04-15 14:12:00,82.0,59.0,29.53,North,360,1.0,11.0,45,0.00,,,0.00,,2013-04-15 19:12:00,
2013-04-15 14:22:00,84.0,60.0,29.53,North,360,0.0,8.0,44,0.00,,,0.00,,2013-04-15 19:22:00,
2013-04-15 14:37:00,84.0,60.0,29.52,North,360,2.0,8.0,44,0.00,,,0.00,,2013-04-15 19:37:00,
2013-04-15 14:50:00,84.0,60.0,29.52,North,360,2.0,8.0,44,0.00,,,0.00,,2013-04-15 19:50:00,
2013-04-15 15:01:00,86.0,59.0,29.53,North,360,2.0,9.0,40,0.00,,,0.00,,2013-04-15 20:01:00,
2013-04-15 15:02:00,87.0,59.0,29.52,North,360,8.0,11.0,39,0.00,,,0.00,,2013-04-15 20:02:00,
2013-04-15 15:11:00,87.0,59.0,29.52,North,360,8.0,11.0,39,0.00,,,0.00,,2013-04-15 20:11:00,
2013-04-15 15:22:00,87.0,59.0,29.52,North,360,8.0,11.0,39,0.00,,,0.00,,2013-04-15 20:22:00,
2013-04-15 15:32:00,86.0,58.0,29.51,North,360,5.0,8.0,39,0.00,,,0.00,,2013-04-15 20:32:00,
2013-04-15 15:42:00,86.0,58.0,29.51,North,360,5.0,8.0,39,0.00,,,0.00,,2013-04-15 20:42:00,
2013-04-15 15:52:00,88.0,57.0,29.50,NE,45,4.0,13.0,35,0.00,,,0.00,,2013-04-15 20:52:00,
2013-04-15 16:02:00,88.0,56.0,29.49,North,360,7.0,11.0,34,0.00,,,0.00,,2013-04-15 21:02:00,
2013-04-15 16:12:00,88.0,56.0,29.49,North,360,7.0,11.0,34,0.00,,,0.00,,2013-04-15 21:12:00,
2013-04-15 16:22:00,89.0,58.0,29.49,North,360,4.0,12.0,35,0.00,,,0.00,,2013-04-15 21:22:00,
2013-04-15 16:32:00,89.0,56.0,29.48,NE,45,2.0,13.0,33,0.00,,,0.00,,2013-04-15 21:32:00,
2013-04-15 16:43:00,89.0,56.0,29.48,NE,45,2.0,13.0,33,0.00,,,0.00,,2013-04-15 21:43:00,
2013-04-15 16:53:00,89.0,55.0,29.48,NE,45,2.0,15.0,32,0.00,,,0.00,,2013-04-15 21:53:00,
2013-04-15 17:02:00,89.0,55.0,29.48,NE,45,2.0,15.0,32,0.00,,,0.00,,2013-04-15 22:02:00,
2013-04-15 17:13:00,89.0,55.0,29.48,NE,45,2.0,15.0,32,0.00,,,0.00,,2013-04-15 22:13:00,
2013-04-15 17:23:00,90.0,56.0,29.48,NW,315,2.0,11.0,32,0.00,,,0.00,,2013-04-15 22:23:00,
2013-04-15 17:33:00,90.0,56.0,29.48,NW,315,2.0,11.0,32,0.00,,,0.00,,2013-04-15 22:33:00,
2013-04-15 17:42:00,90.0,56.0,29.48,NW,315,2.0,11.0,32,0.00,,,0.00,,2013-04-15 22:42:00,
2013-04-15 17:52:00,90.0,56.0,29.48,NW,315,2.0,11.0,32,0.00,,,0.00,,2013-04-15 22:52:00,
2013-04-15 18:02:00,90.0,53.0,29.47,North,360,2.0,11.0,29,0.00,,,0.00,,2013-04-15 23:02:00,
2013-04-15 18:12:00,90.0,53.0,29.47,North,360,2.0,11.0,29,0.00,,,0.00,,2013-04-15 23:12:00,
2013-04-15 18:22:00,90.0,53.0,29.47,North,360,2.0,11.0,29,0.00,,,0.00,,2013-04-15 23:22:00,
2013-04-15 18:32:00,90.0,53.0,29.48,North,360,0.0,8.0,29,0.00,,,0.00,,2013-04-15 23:32:00,
2013-04-15 18:42:00,90.0,53.0,29.48,North,360,0.0,8.0,29,0.00,,,0.00,,2013-04-15 23:42:00,
2013-04-15 18:52:00,90.0,53.0,29.48,North,360,0.0,8.0,29,0.00,,,0.00,,2013-04-15 23:52:00,
2013-04-15 19:02:00,87.0,54.0,29.48,North,360,2.0,11.0,32,0.00,,,0.00,,2013-04-16 00:02:00,
2013-04-15 19:12:00,87.0,54.0,29.48,North,360,2.0,11.0,32,0.00,,,0.00,,2013-04-16 00:12:00,
2013-04-15 19:22:00,86.0,56.0,29.47,North,360,4.0,9.0,36,0.00,,,0.00,,2013-04-16 00:22:00,
2013-04-15 19:32:00,85.0,56.0,29.47,North,360,4.0,6.0,37,0.00,,,0.00,,2013-04-16 00:32:00,
2013-04-15 19:42:00,85.0,56.0,29.47,North,360,4.0,6.0,37,0.00,,,0.00,,2013-04-16 00:42:00,
2013-04-15 19:52:00,85.0,56.0,29.47,North,360,4.0,6.0,37,0.00,,,0.00,,2013-04-16 00:52:00,
2013-04-15 20:02:00,83.0,56.0,29.47,North,360,4.0,7.0,40,0.00,,,0.00,,2013-04-16 01:02:00,
2013-04-15 20:12:00,83.0,56.0,29.47,North,360,4.0,7.0,40,0.00,,,0.00,,2013-04-16 01:12:00,
2013-04-15 20:22:00,82.0,57.0,29.48,North,360,0.0,7.0,42,0.00,,,0.00,,2013-04-16 01:22:00,
2013-04-15 20:32:00,81.0,58.0,29.49,North,360,0.0,1.0,45,0.00,,,0.00,,2013-04-16 01:32:00,
2013-04-15 20:42:00,81.0,58.0,29.49,North,360,0.0,1.0,45,0.00,,,0.00,,2013-04-16 01:42:00,
2013-04-15 20:52:00,81.0,58.0,29.49,North,360,0.0,1.0,45,0.00,,,0.00,,2013-04-16 01:52:00,
2013-04-15 21:02:00,79.0,59.0,29.50,North,360,0.0,1.0,50,0.00,,,0.00,,2013-04-16 02:02:00,
2013-04-15 21:12:00,79.0,59.0,29.50,North,360,0.0,1.0,50,0.00,,,0.00,,2013-04-16 02:12:00,
2013-04-15 21:22:00,79.0,59.0,29.50,North,360,0.0,1.0,50,0.00,,,0.00,,2013-04-16 02:22:00,
2013-04-15 21:32:00,78.0,59.0,29.50,North,360,0.0,1.0,52,0.00,,,0.00,,2013-04-16 02:32:00,
2013-04-15 21:42:00,78.0,59.0,29.50,North,360,0.0,1.0,52,0.00,,,0.00,,2013-04-16 02:42:00,
2013-04-15 21:52:00,78.0,59.0,29.50,North,360,0.0,1.0,52,0.00,,,0.00,,2013-04-16 02:52:00,
2013-04-15 22:02:00,78.0,59.0,29.50,North,360,0.0,1.0,52,0.00,,,0.00,,2013-04-16 03:02:00,
2013-04-15 22:12:00,78.0,59.0,29.50,North,360,0.0,1.0,52,0.00,,,0.00,,2013-04-16 03:12:00,
2013-04-15 22:22:00,78.0,59.0,29.51,North,360,0.0,7.0,53,0.00,,,0.00,,2013-04-16 03:22:00,
2013-04-15 22:33:00,78.0,59.0,29.54,North,360,0.0,5.0,52,0.00,,,0.00,,2013-04-16 03:33:00,
2013-04-15 22:43:00,78.0,59.0,29.54,North,360,0.0,5.0,52,0.00,,,0.00,,2013-04-16 03:43:00,
2013-04-15 22:52:00,78.0,59.0,29.54,North,360,3.0,8.0,52,0.00,,,0.00,,2013-04-16 03:52:00,
2013-04-15 23:03:00,78.0,59.0,29.55,NW,315,0.0,2.0,53,0.00,,,0.00,,2013-04-16 04:03:00,
2013-04-15 23:12:00,78.0,59.0,29.55,NW,315,0.0,2.0,53,0.00,,,0.00,,2013-04-16 04:12:00,
2013-04-15 23:23:00,77.0,59.0,29.55,North,360,0.0,1.0,54,0.00,,,0.00,,2013-04-16 04:23:00,
2013-04-15 23:33:00,77.0,60.0,29.55,NW,315,0.0,1.0,55,0.00,,,0.00,,2013-04-16 04:33:00,
2013-04-15 23:42:00,77.0,60.0,29.55,NW,315,0.0,1.0,55,0.00,,,0.00,,2013-04-16 04:42:00,
2013-04-15 23:53:00,76.0,59.0,29.55,North,360,0.0,1.0,56,0.00,,,0.00,,2013-04-16 04:53:00,